Hourly Data Report for October 30, 2016

All times are specified in Local Standard Time (LST). Add 1 hour to adjust for Daylight Saving Time where and when it is observed.

EUREKA CLIMATE
NUNAVUT

79°59'21.000" N
85°56'02.000" W
10.00 m
2401199
71613
NEK

Download Data

Hourly Data (October 2016)
Hourly Data Report for October 30, 2016
Temp Definition
°C
Dew Point Temp Definition
°C
Rel Hum Definition
%
Wind Dir Definition
10's deg

Wind Spd Definition
km/h
Visibility Definition
km
Stn Press Definition
kPa
Hmdx Definition


Wind Chill Definition


Weather Definition


TIME
00:00 -25.9 -28.4 80 3 8   102.31   -33 LegendNANA
01:00 -24.9 -27.2 81 4 5   102.27   -30 LegendNANA
02:00 -25.5 -28.0 80 11 8   102.23   -33 LegendNANA
03:00 -25.5 -27.9 80 11 4   102.20   -30 LegendNANA
04:00 -24.8 -27.2 80 11 9   102.16   -32 LegendNANA
05:00 -25.3 -27.7 80 11 4   102.12   -29 LegendNANA
06:00 -25.4 -27.8 80 10 5   102.10   -30 LegendNANA
07:00 -25.4 -27.8 80 6 5   102.06   -30 LegendNANA
08:00 -25.4 -27.8 81 8 5   102.01   -30 LegendNANA
09:00 -26.5 -29.1 79 9 3   102.00   -30 LegendNANA
10:00 -26.6 -29.0 80 3 8   101.95   -34 LegendNANA
11:00 -27.2 -29.6 80 2 9   101.96   -35 LegendNANA
12:00 -27.3 -29.9 79 10 2   101.95   -29 LegendNANA
13:00 -27.0 -29.5 80 12 5   101.95   -32 LegendNANA
14:00 -28.4 -31.1 78 5 8   101.97   -36 LegendNANA
15:00 -27.6 -30.0 80 7 4   101.95   -32 LegendNANA
16:00 -27.9 -30.4 79 5 4   101.95   -32 LegendNANA
17:00 -28.7 -31.3 78 11 12   101.95   -39 LegendNANA
18:00 -28.6 -31.2 78 15 3   101.93   -32 LegendNANA
19:00 -28.1 -30.6 79 10 7   101.91   -35 LegendNANA
20:00 -28.7 -31.3 78 10 11   101.91   -38 LegendNANA
21:00 -29.1 -31.7 78 8 8   101.92   -37 LegendNANA
22:00 -29.2 -31.9 77 11 6   101.93   -36 LegendNANA
23:00 -29.2 -31.8 78 11 10   101.94   -38 LegendNANA

Notes on Data Quality.

Legend

  • E = Estimated
  • M = Missing
  • NA = Not Available
  • ‡ = Partner data that is not subject to review by the National Climate Archives
Date modified: